Weather History for Jackson, WY

Change the Weather History Date:

Wednesday, February 27, 2013

  Actual Average Record
Temperature  
Mean Temperature 8 °F -  
Max Temperature 24 °F 35 °F 49 °F (1986)
Min Temperature -9 °F 1 °F -25 °F (1962)
Degree Days  
Heating Degree Days 58    
Moisture  
Dew Point 0 °F    
Average Humidity 86    
Maximum Humidity 100    
Minimum Humidity 59    
Precipitation  
Precipitation 0.00 in - - ()
Sea Level Pressure  
Sea Level Pressure 30.27 in    
Wind  
Wind Speed 6 mph (North)    
Max Wind Speed 13 mph    
Max Gust Speed -    
Visibility 9 miles    
Events Snow    
Averages and records for this station are not official NWS values.
T = Trace of Precipitation, MM = Missing Value Source: NWS Daily Summary

Daily Weather History Graph

Daily Weather History Graph

Search for Another Location

Airport:

Trip Planner

Search our weather history database for the weather conditions in past years. The results will help you decide how hot, cold, wet, or windy it might be!

Date:

Astronomy

Feb. 27, 2013 Rise Set
Actual Time 7:02 AM MST 6:09 PM MST
Civil Twilight 6:33 AM MST 6:38 PM MST
Nautical Twilight 6:00 AM MST 7:11 PM MST
Astronomical Twilight 5:27 AM MST 7:44 PM MST
Moon 8:41 PM MST (2/27) 7:34 AM MST (2/27)
Length of Visible Light 12h 04m
Length of Day
11h 07m
Waning Gibbous, 96% of the Moon is Illuminated
Feb 27
Waning Gibbous
Mar 4
Last Quarter
Mar 11
New
Mar 19
First Quarter
Mar 27
Full

Hourly Weather History & Observations

Time (MST) Temp. Windchill Dew Point Humidity Pressure Visibility Wind Dir Wind Speed Gust Speed Precip Events Conditions
12:15 AM -2.2 °F -15.6 °F -5.8 °F 85% 30.23 in 10.0 mi NNE 6.9 mph - N/A   Clear
12:35 AM -5.8 °F -19.9 °F -7.6 °F 92% 30.23 in 10.0 mi North 6.9 mph - N/A   Clear
12:55 AM -7.6 °F -16.5 °F -7.6 °F 100% 30.24 in 10.0 mi NNW 3.5 mph - N/A   Clear
1:15 AM -4.0 °F -14.6 °F -7.6 °F 85% 30.24 in 10.0 mi North 4.6 mph - N/A   Clear
1:55 AM -5.8 °F -19.9 °F -7.6 °F 92% 30.25 in 10.0 mi North 6.9 mph - N/A   Clear
2:16 AM -7.6 °F -24.6 °F -7.6 °F 100% 30.25 in 10.0 mi North 9.2 mph - N/A   Clear
2:35 AM -9.4 °F -27.9 °F -11.2 °F 92% 30.26 in 10.0 mi North 10.4 mph - N/A   Clear
2:55 AM -7.6 °F -24.6 °F -9.4 °F 92% 30.26 in 10.0 mi North 9.2 mph - N/A   Partly Cloudy
3:15 AM -7.6 °F -25.7 °F -9.4 °F 92% 30.26 in 10.0 mi North 10.4 mph - N/A   Clear
3:35 AM -9.4 °F -25.6 °F -11.2 °F 92% 30.26 in 10.0 mi NNW 8.1 mph - N/A   Clear
3:55 AM -7.6 °F -24.6 °F -9.4 °F 92% 30.26 in 10.0 mi North 9.2 mph - N/A   Clear
4:15 AM -9.4 °F -26.8 °F -13.0 °F 84% 30.26 in 10.0 mi North 9.2 mph - N/A   Partly Cloudy
4:35 AM -7.6 °F -23.4 °F -9.4 °F 92% 30.27 in 10.0 mi North 8.1 mph - N/A   Mostly Cloudy
4:55 AM -2.2 °F -12.5 °F -5.8 °F 85% 30.27 in 10.0 mi North 4.6 mph - N/A   Overcast
5:15 AM -2.2 °F -12.5 °F -4.0 °F 92% 30.28 in 3.0 mi NNE 4.6 mph - N/A   Overcast
5:35 AM -2.2 °F -12.5 °F -4.0 °F 92% 30.28 in 3.0 mi NNE 4.6 mph - N/A   Overcast
5:55 AM -2.2 °F -14.2 °F -4.0 °F 92% 30.28 in 2.5 mi North 5.8 mph - N/A   Overcast
6:15 AM -0.4 °F -13.4 °F -2.2 °F 92% 30.28 in 2.5 mi North 6.9 mph - N/A   Overcast
6:35 AM -0.4 °F -12.0 °F -2.2 °F 92% 30.28 in 4.0 mi North 5.8 mph - N/A   Overcast
6:51 AM -0.4 °F - -2.2 °F 92% 30.28 in 4.0 mi Calm Calm - N/A Snow Light Snow
7:51 AM 1.4 °F - -0.4 °F 92% 30.29 in 3.0 mi Calm Calm - N/A Snow Light Snow
8:51 AM 3.2 °F - 1.4 °F 92% 30.31 in 4.0 mi Calm Calm - N/A Snow Light Snow
9:54 AM 6.8 °F - 3.2 °F 85% 30.31 in 6.0 mi Calm Calm - N/A   Mostly Cloudy
10:52 AM 10.4 °F - 6.8 °F 85% 30.30 in 10.0 mi Calm Calm - N/A   Scattered Clouds
12:00 PM 10.4 °F - 6.8 °F 85% 30.30 in 10.0 mi Calm Calm - N/A   Partly Cloudy
12:51 PM 15.8 °F - 8.6 °F 73% 30.30 in 10.0 mi Calm Calm - N/A   Partly Cloudy
1:51 PM 17.6 °F 9.3 °F 10.4 °F 73% 30.28 in 10.0 mi East 5.8 mph - N/A   Partly Cloudy
2:53 PM 19.4 °F - 10.4 °F 68% 30.26 in 10.0 mi Calm Calm - N/A   Partly Cloudy
3:51 PM 23.0 °F - 10.4 °F 59% 30.25 in 10.0 mi Calm Calm - N/A   Partly Cloudy
4:55 PM 24.8 °F - 12.2 °F 59% 30.25 in 10.0 mi Calm Calm - N/A   Partly Cloudy
5:55 PM 21.2 °F - 10.4 °F 63% 30.24 in 10.0 mi Calm Calm - N/A   Partly Cloudy
6:51 PM 14.0 °F - 8.6 °F 79% 30.25 in 10.0 mi Calm Calm - N/A   Clear
7:51 PM 15.8 °F - 8.6 °F 73% 30.26 in 10.0 mi Calm Calm - N/A   Clear
8:51 PM 10.4 °F -4.8 °F 6.8 °F 85% 30.29 in 10.0 mi North 12.7 mph - N/A   Clear
8:55 PM 8.6 °F -4.7 °F 3.2 °F 79% 30.29 in 10.0 mi North 9.2 mph - N/A   Clear
9:15 PM 6.8 °F -7.8 °F 3.2 °F 85% 30.29 in 10.0 mi North 10.4 mph - N/A   Clear
9:35 PM 10.4 °F -0.4 °F 8.6 °F 92% 30.29 in 10.0 mi North 6.9 mph - N/A   Clear
9:55 PM 6.8 °F -8.6 °F 5.0 °F 92% 30.30 in 10.0 mi North 11.5 mph - N/A   Clear
10:15 PM 6.8 °F -7.8 °F 3.2 °F 85% 30.30 in 10.0 mi North 10.4 mph - N/A   Clear
10:35 PM 6.8 °F -5.9 °F 3.2 °F 85% 30.30 in 10.0 mi North 8.1 mph - N/A   Partly Cloudy
10:55 PM 3.2 °F -10.3 °F 1.4 °F 92% 30.30 in 10.0 mi North 8.1 mph - N/A   Clear
11:15 PM 3.2 °F -6.2 °F 1.4 °F 92% 30.30 in 10.0 mi NNE 4.6 mph - N/A   Clear
11:35 PM 1.4 °F -16.1 °F -0.4 °F 92% 30.30 in 10.0 mi North 12.7 mph - N/A   Clear
11:55 PM 1.4 °F -9.9 °F -0.4 °F 92% 30.30 in 10.0 mi NNE 5.8 mph - N/A   Clear